This is the latest recevied weather packets stored in our database for station/object K5YNC. If no packets are shown the sender has not sent any weather packets the latest 10 day(s).
| Time | Temp. | Humidity | Pressure | Rain* | Wind** | Luminosity | Snow |
|---|---|---|---|---|---|---|---|
| 1777817909 | 21.11° C | 50% | 1022.1 hPa | 0 mm | - | 322 W/m² | - |
| 1777817607 | 21.11° C | 51% | 1021.9 hPa | 0 mm | - | 307 W/m² | - |
| 1777817304 | 20.56° C | 50% | 1021.8 hPa | 0 mm | - | 293 W/m² | - |
| 1777817001 | 20.56° C | 52% | 1021.9 hPa | 0 mm | - | 278 W/m² | - |
| 1777816697 | 20.56° C | 52% | 1022 hPa | 0 mm | - | 263 W/m² | - |
| 1777816394 | 20° C | 53% | 1021.7 hPa | 0 mm | - | 247 W/m² | - |
| 1777816092 | 20° C | 54% | 1021.9 hPa | 0 mm | - | 233 W/m² | - |
| 1777815790 | 20° C | 55% | 1021.9 hPa | 0 mm | - | 221 W/m² | - |
| 1777815487 | 19.44° C | 55% | 1021.7 hPa | 0 mm | - | 207 W/m² | - |
| 1777815184 | 18.89° C | 56% | 1021.8 hPa | 0 mm | - | 193 W/m² | - |
| 1777814880 | 18.89° C | 57% | 1021.8 hPa | 0 mm | - | 125 W/m² | - |
| 1777814576 | 18.33° C | 58% | 1022 hPa | 0 mm | - | 46 W/m² | - |
| 1777814274 | 18.33° C | 58% | 1021.8 hPa | 0 mm | - | 62 W/m² | - |
| 1777813970 | 17.78° C | 60% | 1021.8 hPa | 0 mm | - | 59 W/m² | - |
| 1777813668 | 17.78° C | 60% | 1022 hPa | 0 mm | - | 42 W/m² | - |
| 1777813365 | 17.22° C | 61% | 1021.7 hPa | 0 mm | - | 41 W/m² | - |
| 1777813063 | 16.67° C | 62% | 1021.8 hPa | 0 mm | - | 39 W/m² | - |
| 1777812760 | 16.67° C | 64% | 1021.9 hPa | 0 mm | - | 38 W/m² | - |
| 1777812456 | 16.67° C | 63% | 1021.9 hPa | 0 mm | - | 36 W/m² | - |
| 1777812155 | 16.11° C | 64% | 1021.9 hPa | 0 mm | - | 34 W/m² | - |
| 1777811852 | 16.11° C | 64% | 1021.5 hPa | 0 mm | - | 33 W/m² | - |
| 1777811551 | 15.56° C | 65% | 1021.8 hPa | 0 mm | - | 32 W/m² | - |
| 1777811246 | 15.56° C | 66% | 1021.7 hPa | 0 mm | - | 29 W/m² | - |
| 1777810944 | 15.56° C | 66% | 1021.5 hPa | 0 mm | - | 26 W/m² | - |
| 1777810640 | 15° C | 67% | 1021.7 hPa | 0 mm | - | 23 W/m² | - |
* Rain latest hour (hover to see other rain measurements)
** Current wind speed in m/s (hover to see current wind gust speed)